EW6749 Weather Reports


Display with metric or nautical units.
time (UTC)temp
F
wind
direction
speed
MPH
gust
MPH
rain 1hr
in
rain 24hr
in
rain mn
in
humidity
%
barometer
mb
20260508054017 56 13 0.0 3.0 0.00 0.00 0.00 88 1018.5
20260508053036 56 332 0.0 1.0 0.00 0.00 0.00 89 1018.5
20260508052017 56 334 0.0 1.0 0.00 0.00 0.00 89 1018.5
20260508051017 56 37 0.0 1.0 0.00 0.00 0.00 89 1018.5
20260508050017 56 334 0.0 2.0 0.00 0.00 0.00 89 1018.5
20260508045017 56 82 0.0 1.0 0.00 0.00 0.00 90 1018.5
20260508044037 56 326 0.0 1.0 0.00 0.00 0.00 91 1018.5
20260508043018 55 337 0.0 1.0 0.00 0.00 0.00 91 1018.3
20260508042019 56 302 1.0 2.0 0.00 0.00 0.00 90 1018.2
20260508041015 56 331 0.0 2.0 0.00 0.00 0.00 89 1018.0
20260508040015 56 314 0.0 2.0 0.00 0.00 0.00 88 1018.0
20260508035015 57 304 0.0 2.0 0.00 0.00 0.00 86 1017.8
20260508034036 57 312 1.0 2.0 0.00 0.00 0.00 86 1017.6
20260508033036 58 314 0.0 1.0 0.00 0.00 0.00 85 1017.6
20260508032018 58 333 0.0 2.0 0.00 0.00 0.00 82 1017.5
20260508031016 59 288 1.0 3.0 0.00 0.00 0.00 79 1017.4
20260508030037 60 343 0.0 2.0 0.00 0.00 0.00 79 1017.4
20260508025057 60 44 0.0 2.0 0.00 0.00 0.00 77 1017.3
20260508024017 61 51 0.0 1.0 0.00 0.00 0.00 76 1017.2
20260508023017 61 89 1.0 3.0 0.00 0.00 0.00 75 1017.2
20260508022037 62 15 0.0 1.0 0.00 0.00 0.00 73 1017.2
20260508021038 63 80 0.0 2.0 0.00 0.00 0.00 71 1017.2
20260508020018 64 334 1.0 3.0 0.00 0.00 0.00 69 1017.2
20260508015038 64 87 1.0 4.0 0.00 0.00 0.00 69 1017.2
20260508014018 65 288 0.0 2.0 0.00 0.00 0.00 67 1017.2
20260508013015 66 104 0.0 3.0 0.00 0.00 0.00 66 1017.1
20260508012015 67 110 0.0 3.0 0.00 0.00 0.00 64 1017.1
20260508011015 67 121 1.0 6.0 0.00 0.00 0.00 64 1017.1
20260508010017 69 118 1.0 5.0 0.00 0.00 0.00 60 1017.1
20260508005016 69 125 1.0 5.0 0.00 0.00 0.00 59 1017.1
20260508004016 69 299 1.0 4.0 0.00 0.00 0.00 59 1017.2
20260508003016 68 285 1.0 5.0 0.00 0.00 0.00 63 1017.2
20260508002016 70 128 1.0 6.0 0.00 0.00 0.00 61 1017.2
20260508001016 69 115 1.0 6.0 0.00 0.00 0.00 63 1017.1
20260508000017 70 108 2.0 5.0 0.00 0.00 0.00 63 1017.1
20260507235017 72 143 2.0 7.0 0.00 0.00 0.00 61 1017.0
20260507234018 72 125 1.0 5.0 0.00 0.00 0.00 60 1017.0
20260507233018 73 103 1.0 5.0 0.00 0.00 0.00 60 1017.1
20260507232017 73 140 1.0 4.0 0.00 0.00 0.00 58 1017.1
20260507231018 73 287 1.0 4.0 0.00 0.00 0.00 58 1017.2
20260507230018 73 123 2.0 7.0 0.00 0.00 0.00 57 1017.2
20260507225019 73 120 1.0 5.0 0.00 0.00 0.00 59 1017.3
20260507224018 72 292 1.0 4.0 0.00 0.00 0.00 59 1017.4
20260507223036 72 124 1.0 6.0 0.00 0.00 0.00 58 1017.5
20260507222016 71 107 1.0 4.0 0.00 0.00 0.00 60 1017.6
20260507221016 72 122 2.0 6.0 0.00 0.00 0.00 59 1017.7
20260507220037 71 326 1.0 8.0 0.00 0.00 0.00 59 1017.8
20260507215016 72 116 3.0 6.0 0.00 0.00 0.00 60 1017.8
20260507214016 72 328 1.0 5.0 0.00 0.00 0.00 58 1017.9
20260507213036 71 281 2.0 5.0 0.00 0.00 0.00 60 1018.0
20260507212016 71 117 1.0 4.0 0.00 0.00 0.00 60 1018.2
20260507211037 71 124 1.0 4.0 0.00 0.00 0.00 61 1018.3
20260507210017 71 301 2.0 8.0 0.00 0.00 0.00 61 1018.3
20260507205017 71 281 1.0 4.0 0.00 0.00 0.00 61 1018.4
20260507204017 70 110 2.0 5.0 0.00 0.00 0.00 62 1018.5
20260507203017 70 117 1.0 6.0 0.00 0.00 0.00 63 1018.5
20260507202017 70 118 2.0 5.0 0.00 0.00 0.00 62 1018.7
20260507201018 70 131 1.0 3.0 0.00 0.00 0.00 63 1018.7
20260507200018 69 146 1.0 3.0 0.00 0.00 0.00 64 1018.8
20260507195016 69 92 1.0 4.0 0.00 0.00 0.00 64 1018.9
20260507194036 69 94 1.0 3.0 0.00 0.00 0.00 64 1019.0
20260507193016 68 57 1.0 4.0 0.00 0.00 0.00 66 1019.2
20260507192036 67 87 1.0 5.0 0.00 0.00 0.00 66 1019.3
20260507191016 66 110 2.0 4.0 0.00 0.00 0.00 70 1019.4
20260507190016 65 110 1.0 4.0 0.00 0.00 0.00 70 1019.5
20260507185016 65 101 1.0 4.0 0.00 0.00 0.00 71 1019.6
20260507184017 63 78 1.0 4.0 0.00 0.00 0.00 75 1019.6
20260507183037 62 106 1.0 3.0 0.00 0.00 0.00 76 1019.7
20260507182017 62 62 1.0 4.0 0.00 0.00 0.00 77 1019.8
20260507181017 61 23 1.0 4.0 0.00 0.00 0.00 80 1019.7
20260507180017 61 85 1.0 4.0 0.00 0.00 0.00 80 1019.7
20260507175017 59 337 1.0 5.0 0.00 0.00 0.00 83 1019.7
20260507174037 59 70 1.0 3.0 0.00 0.00 0.00 83 1019.7
20260507173017 58 309 1.0 4.0 0.00 0.00 0.00 85 1019.6
20260507172018 58 18 1.0 2.0 0.00 0.00 0.00 86 1019.6
20260507171018 58 90 0.0 2.0 0.00 0.00 0.00 87 1019.6
20260507170018 57 86 0.0 2.0 0.00 0.00 0.00 88 1019.6
20260507165016 57 291 0.0 2.0 0.00 0.00 0.00 88 1019.6
20260507164016 56 303 2.0 3.0 0.00 0.00 0.00 89 1019.7
20260507163017 56 54 1.0 2.0 0.00 0.00 0.00 91 1019.7
20260507162037 56 69 1.0 3.0 0.00 0.00 0.00 90 1019.7
20260507161037 56 312 1.0 2.0 0.00 0.00 0.00 91 1019.6
20260507160038 56 307 1.0 3.0 0.00 0.00 0.00 91 1019.6
20260507155037 56 298 1.0 3.0 0.00 0.00 0.00 91 1019.6
20260507154017 55 307 0.0 2.0 0.00 0.00 0.00 93 1019.5
20260507153018 55 296 2.0 3.0 0.00 0.00 0.00 93 1019.6
20260507152018 55 297 2.0 3.0 0.00 0.00 0.00 93 1019.5
20260507151018 55 304 1.0 3.0 0.00 0.00 0.00 93 1019.6
20260507150016 55 309 1.0 3.0 0.00 0.00 0.00 94 1019.6
20260507145015 55 301 2.0 3.0 0.00 0.00 0.00 93 1019.6
20260507144016 55 314 1.0 2.0 0.00 0.00 0.00 93 1019.5
20260507143016 54 303 1.0 3.0 0.00 0.00 0.00 93 1019.5
20260507142016 55 302 2.0 3.0 0.00 0.00 0.00 93 1019.4
20260507141017 55 303 1.0 4.0 0.00 0.00 0.00 93 1019.4
20260507140016 55 300 1.0 2.0 0.00 0.00 0.00 93 1019.3
20260507135017 55 308 0.0 1.0 0.00 0.00 0.00 93 1019.3
20260507134037 55 308 1.0 3.0 0.00 0.00 0.00 93 1019.2
20260507133017 55 308 1.0 2.0 0.00 0.00 0.00 93 1019.1
20260507132018 55 301 1.0 3.0 0.00 0.00 0.00 93 1019.1
20260507131017 55 302 1.0 2.0 0.00 0.00 0.00 93 1018.9
20260507130017 55 301 1.0 2.0 0.00 0.00 0.00 93 1019.0
20260507125018 55 333 0.0 2.0 0.00 0.00 0.00 93 1018.9
20260507124038 55 305 1.0 2.0 0.00 0.00 0.00 93 1018.9
20260507123039 55 327 0.0 2.0 0.00 0.00 0.00 92 1018.9
20260507122018 55 343 0.0 1.0 0.00 0.00 0.00 93 1019.0
20260507121015 55 292 1.0 4.0 0.00 0.00 0.00 92 1019.0
20260507120016 55 314 0.0 2.0 0.00 0.00 0.00 92 1019.0
20260507115015 55 313 0.0 1.0 0.00 0.00 0.00 92 1019.1
20260507114056 55 345 0.0 1.0 0.00 0.00 0.00 93 1019.2
20260507113016 55 55 0.0 2.0 0.00 0.00 0.00 92 1019.2
20260507112016 55 24 0.0 2.0 0.00 0.00 0.00 92 1019.2
20260507111016 55 35 0.0 2.0 0.00 0.00 0.00 92 1019.2
20260507110037 56 310 0.0 1.0 0.00 0.00 0.00 91 1019.2
20260507105017 56 305 0.0 2.0 0.00 0.00 0.00 92 1019.3
20260507104017 56 350 0.0 1.0 0.00 0.00 0.00 92 1019.2
20260507103037 56 7 0.0 1.0 0.00 0.00 0.00 92 1019.3
20260507102017 56 339 0.0 1.0 0.00 0.00 0.00 91 1019.2
20260507101037 56 41 0.0 1.0 0.00 0.00 0.00 91 1019.1
20260507100018 56 21 0.0 2.0 0.00 0.00 0.00 91 1019.2
20260507095018 56 345 0.0 1.0 0.00 0.00 0.00 91 1019.2
20260507094018 56 34 0.0 2.0 0.00 0.00 0.00 91 1019.3
20260507093016 56 321 0.0 1.0 0.00 0.00 0.00 90 1019.3
20260507092019 56 343 0.0 1.0 0.00 0.00 0.00 90 1019.4
20260507091016 56 266 0.0 0.0 0.00 0.00 0.00 90 1019.5
20260507090016 56 8 0.0 1.0 0.00 0.00 0.00 90 1019.6
20260507085016 56 40 0.0 2.0 0.00 0.00 0.00 90 1019.6
20260507084036 57 303 1.0 2.0 0.00 0.00 0.00 90 1019.6
20260507083036 57 337 0.0 2.0 0.00 0.00 0.00 90 1019.6
20260507082016 57 21 0.0 2.0 0.00 0.00 0.00 90 1019.6
20260507081016 57 220 0.0 1.0 0.00 0.00 0.00 89 1019.6
20260507080017 57 353 0.0 2.0 0.00 0.00 0.00 89 1019.7
20260507075017 57 304 0.0 2.0 0.00 0.00 0.00 89 1019.7
20260507074017 57 302 0.0 2.0 0.00 0.00 0.00 89 1019.6
20260507073017 57 317 0.0 1.0 0.00 0.00 0.00 89 1019.7
20260507072017 57 310 0.0 2.0 0.00 0.00 0.00 89 1019.7
20260507071017 57 316 1.0 3.0 0.00 0.00 0.00 89 1019.8
20260507070018 57 335 0.0 1.0 0.00 0.00 0.00 89 1019.8
20260507065038 57 358 0.0 2.0 0.00 0.00 0.00 89 1019.9
20260507064038 57 352 0.0 2.0 0.00 0.00 0.00 89 1019.9
20260507063019 57 327 0.0 1.0 0.00 0.00 0.00 89 1019.8
20260507062015 57 307 0.0 2.0 0.00 0.00 0.00 88 1019.9
20260507061016 57 307 0.0 1.0 0.00 0.00 0.00 88 1019.9
20260507060016 57 313 0.0 2.0 0.00 0.00 0.00 88 1019.9
20260507055016 57 346 0.0 2.0 0.00 0.00 0.00 87 1019.8